Multibeam Report for HLY1603


Ship Name: Healy
Chief Scientist: Mayer, Larry
University of New Hampshire, Center for Coastal and Ocean Mapping (UNH/CCOM)
Source Organization: University of New Hampshire, Center for Coastal and Ocean Mapping (UNH/CCOM)
Start Date: 2016-09-17
End Date: 2016-10-06


View ISO Metadata

Visit the full NCEI Bathymetry Viewer


Multibeam Bathymetry

Cruise Details

Project: U.S. Extended Continental Shelf (ECS) Survey
Instrument: Kongsberg EM122

Data Quality

Number of Files: 542
Number of Records: 1865884
BATHYMETRY DATA Quantity Percentage
Number of Beams 806044896 100%
Number of Good Beams 662901170 82.24%
Number of Zero Beams 2 0.0%
Number of Flagged Beams 143143724 17.76%

Navigation Totals

Total Time: 378.7444 hours
Total Track Length: 6910.2032 km
Average Speed: 18.245 km/hr (9.8515 knots)

Cruise Bounds

Northern Extent: 82.154434
Southern Extent: 54.079376
Western Extent: -173.3975
Eastern Extent: -142.23749

Limits

Minimum Sonar Depth 5.8417 Maximum Sonar Depth 10.3973
Minimum Altitude 0 Maximum Altitude 4965.2437
Minimum Depth 22.2463 Maximum Depth 5177.8994

File Information

Full Resolution Bathymetry as collected (raw): 258

Files File Size Description
0000_20050101_092150_HEALY.all.mb58.gz 241.16MB Kongsberg multibeam vendor format
0001_20050101_095150_HEALY.all.mb58.gz 55.74MB Kongsberg multibeam vendor format
0002_20050101_102100_HEALY.all.mb58.gz 241.41MB Kongsberg multibeam vendor format
0003_20050101_105100_HEALY.all.mb58.gz 241.58MB Kongsberg multibeam vendor format
0004_20050101_112100_HEALY.all.mb58.gz 238.55MB Kongsberg multibeam vendor format
0005_20050101_115100_HEALY.all.mb58.gz 233.40MB Kongsberg multibeam vendor format
0006_20050101_122100_HEALY.all.mb58.gz 230.58MB Kongsberg multibeam vendor format
0007_20050101_125100_HEALY.all.mb58.gz 226.58MB Kongsberg multibeam vendor format
0008_20050101_132100_HEALY.all.mb58.gz 222.46MB Kongsberg multibeam vendor format
0009_20050101_135100_HEALY.all.mb58.gz 219.84MB Kongsberg multibeam vendor format
0010_20050101_142100_HEALY.all.mb58.gz 219.53MB Kongsberg multibeam vendor format
0011_20050101_145100_HEALY.all.mb58.gz 217.99MB Kongsberg multibeam vendor format
0012_20050101_152100_HEALY.all.mb58.gz 219.40MB Kongsberg multibeam vendor format
0013_20050101_155100_HEALY.all.mb58.gz 220.70MB Kongsberg multibeam vendor format
0014_20050101_162100_HEALY.all.mb58.gz 218.21MB Kongsberg multibeam vendor format
0015_20050101_165100_HEALY.all.mb58.gz 214.27MB Kongsberg multibeam vendor format
0016_20050101_172100_HEALY.all.mb58.gz 220.38MB Kongsberg multibeam vendor format
0017_20050101_175100_HEALY.all.mb58.gz 223.66MB Kongsberg multibeam vendor format
0018_20050101_182100_HEALY.all.mb58.gz 226.19MB Kongsberg multibeam vendor format
0019_20050101_185100_HEALY.all.mb58.gz 231.20MB Kongsberg multibeam vendor format
0020_20050101_192100_HEALY.all.mb58.gz 258.90MB Kongsberg multibeam vendor format
0021_20050101_195100_HEALY.all.mb58.gz 285.98MB Kongsberg multibeam vendor format
0022_20050101_202100_HEALY.all.mb58.gz 300.36MB Kongsberg multibeam vendor format
0023_20050101_205100_HEALY.all.mb58.gz 125.10MB Kongsberg multibeam vendor format
0024_20050101_212100_HEALY.all.mb58.gz 267.01MB Kongsberg multibeam vendor format
0025_20050101_215100_HEALY.all.mb58.gz 115.29MB Kongsberg multibeam vendor format
0027_20041231_222831_HEALY.all.mb58.gz 239.30MB Kongsberg multibeam vendor format
0028_20041231_225831_HEALY.all.mb58.gz 228.77MB Kongsberg multibeam vendor format
0029_20041231_232831_HEALY.all.mb58.gz 215.25MB Kongsberg multibeam vendor format
0030_20041231_235831_HEALY.all.mb58.gz 212.82MB Kongsberg multibeam vendor format
0031_20050101_002831_HEALY.all.mb58.gz 202.12MB Kongsberg multibeam vendor format
0032_20050101_005831_HEALY.all.mb58.gz 177.67MB Kongsberg multibeam vendor format
0033_20050101_012831_HEALY.all.mb58.gz 136.56MB Kongsberg multibeam vendor format
0034_20050101_015832_HEALY.all.mb58.gz 97.25MB Kongsberg multibeam vendor format
0035_20050101_022832_HEALY.all.mb58.gz 76.44MB Kongsberg multibeam vendor format
0036_20050101_025834_HEALY.all.mb58.gz 69.33MB Kongsberg multibeam vendor format
0037_20050101_032833_HEALY.all.mb58.gz 65.42MB Kongsberg multibeam vendor format
0038_20050101_035838_HEALY.all.mb58.gz 65.59MB Kongsberg multibeam vendor format
0039_20050101_042839_HEALY.all.mb58.gz 64.53MB Kongsberg multibeam vendor format
0040_20050101_045836_HEALY.all.mb58.gz 64.52MB Kongsberg multibeam vendor format
0041_20050101_052836_HEALY.all.mb58.gz 64.06MB Kongsberg multibeam vendor format
0042_20050101_055838_HEALY.all.mb58.gz 63.58MB Kongsberg multibeam vendor format
0043_20050101_062835_HEALY.all.mb58.gz 63.80MB Kongsberg multibeam vendor format
0044_20050101_065841_HEALY.all.mb58.gz 63.22MB Kongsberg multibeam vendor format
0045_20050101_072838_HEALY.all.mb58.gz 62.84MB Kongsberg multibeam vendor format
0046_20050101_075836_HEALY.all.mb58.gz 63.45MB Kongsberg multibeam vendor format
0047_20050101_082837_HEALY.all.mb58.gz 63.76MB Kongsberg multibeam vendor format
0048_20050101_085831_HEALY.all.mb58.gz 65.23MB Kongsberg multibeam vendor format
0049_20050101_092833_HEALY.all.mb58.gz 64.88MB Kongsberg multibeam vendor format
0050_20050101_095831_HEALY.all.mb58.gz 62.98MB Kongsberg multibeam vendor format
0051_20050101_102839_HEALY.all.mb58.gz 5.16MB Kongsberg multibeam vendor format
0052_20160920_125100_HEALY.all.mb58.gz 63.50MB Kongsberg multibeam vendor format
0053_20160920_132059_HEALY.all.mb58.gz 21.67MB Kongsberg multibeam vendor format
0054_20160920_134931_HEALY.all.mb58.gz 57.40MB Kongsberg multibeam vendor format
0055_20160920_141937_HEALY.all.mb58.gz 58.69MB Kongsberg multibeam vendor format
0056_20160920_144935_HEALY.all.mb58.gz 10.08MB Kongsberg multibeam vendor format
0057_20160920_152119_HEALY.all.mb58.gz 58.88MB Kongsberg multibeam vendor format
0058_20160920_155121_HEALY.all.mb58.gz 58.54MB Kongsberg multibeam vendor format
0059_20160920_162115_HEALY.all.mb58.gz 13.83MB Kongsberg multibeam vendor format
0060_20160920_181543_HEALY.all.mb58.gz 149.16MB Kongsberg multibeam vendor format
0061_20160920_194506_HEALY.all.mb58.gz 82.83MB Kongsberg multibeam vendor format
0062_20160920_202614_HEALY.all.mb58.gz 152.55MB Kongsberg multibeam vendor format
0063_20160920_214350_HEALY.all.mb58.gz 36.12MB Kongsberg multibeam vendor format
0064_20160920_225525_HEALY.all.mb58.gz 363.75MB Kongsberg multibeam vendor format
0065_20160921_015522_HEALY.all.mb58.gz 320.61MB Kongsberg multibeam vendor format
0066_20160921_042900_HEALY.all.mb58.gz 189.51MB Kongsberg multibeam vendor format
0067_20160921_060019_HEALY.all.mb58.gz 248.74MB Kongsberg multibeam vendor format
0068_20160921_080003_HEALY.all.mb58.gz 248.47MB Kongsberg multibeam vendor format
0069_20160921_100008_HEALY.all.mb58.gz 248.84MB Kongsberg multibeam vendor format
0070_20160921_120009_HEALY.all.mb58.gz 249.50MB Kongsberg multibeam vendor format
0071_20160921_140012_HEALY.all.mb58.gz 249.21MB Kongsberg multibeam vendor format
0072_20160921_160002_HEALY.all.mb58.gz 373.59MB Kongsberg multibeam vendor format
0073_20160921_190006_HEALY.all.mb58.gz 55.20MB Kongsberg multibeam vendor format
0074_20160921_192658_HEALY.all.mb58.gz 60.78MB Kongsberg multibeam vendor format
0075_20160921_195608_HEALY.all.mb58.gz 258.05MB Kongsberg multibeam vendor format
0076_20160921_220012_HEALY.all.mb58.gz 242.90MB Kongsberg multibeam vendor format
0077_20160921_235941_HEALY.all.mb58.gz 60.23MB Kongsberg multibeam vendor format
0078_20160922_003013_HEALY.all.mb58.gz 177.16MB Kongsberg multibeam vendor format
0079_20160922_020036_HEALY.all.mb58.gz 235.57MB Kongsberg multibeam vendor format
0080_20160922_040051_HEALY.all.mb58.gz 233.29MB Kongsberg multibeam vendor format
0081_20160922_060003_HEALY.all.mb58.gz 235.39MB Kongsberg multibeam vendor format
0082_20160922_080003_HEALY.all.mb58.gz 235.42MB Kongsberg multibeam vendor format
0083_20160922_100007_HEALY.all.mb58.gz 235.10MB Kongsberg multibeam vendor format
0084_20160922_120021_HEALY.all.mb58.gz 234.29MB Kongsberg multibeam vendor format
0085_20160922_140012_HEALY.all.mb58.gz 234.33MB Kongsberg multibeam vendor format
0086_20160922_160013_HEALY.all.mb58.gz 235.05MB Kongsberg multibeam vendor format
0087_20160922_180002_HEALY.all.mb58.gz 203.91MB Kongsberg multibeam vendor format
0088_20160922_200004_HEALY.all.mb58.gz 236.05MB Kongsberg multibeam vendor format
0089_20160922_220125_HEALY.all.mb58.gz 226.07MB Kongsberg multibeam vendor format
0090_20160923_000013_HEALY.all.mb58.gz 235.55MB Kongsberg multibeam vendor format
0091_20160923_020004_HEALY.all.mb58.gz 229.08MB Kongsberg multibeam vendor format
0092_20160923_040017_HEALY.all.mb58.gz 232.61MB Kongsberg multibeam vendor format
0093_20160923_060011_HEALY.all.mb58.gz 227.19MB Kongsberg multibeam vendor format
0094_20160923_080008_HEALY.all.mb58.gz 232.03MB Kongsberg multibeam vendor format
0095_20160923_100000_HEALY.all.mb58.gz 204.93MB Kongsberg multibeam vendor format
0096_20160923_120004_HEALY.all.mb58.gz 235.77MB Kongsberg multibeam vendor format
0097_20160923_140011_HEALY.all.mb58.gz 224.04MB Kongsberg multibeam vendor format
0098_20160923_160021_HEALY.all.mb58.gz 235.07MB Kongsberg multibeam vendor format
0099_20160923_180007_HEALY.all.mb58.gz 163.53MB Kongsberg multibeam vendor format
0100_20160923_192722_HEALY.all.mb58.gz 76.39MB Kongsberg multibeam vendor format
0101_20160923_201246_HEALY.all.mb58.gz 195.92MB Kongsberg multibeam vendor format
0102_20160923_220044_HEALY.all.mb58.gz 236.60MB Kongsberg multibeam vendor format
0103_20160924_000044_HEALY.all.mb58.gz 232.73MB Kongsberg multibeam vendor format
0104_20160924_020002_HEALY.all.mb58.gz 238.95MB Kongsberg multibeam vendor format
0105_20160924_040004_HEALY.all.mb58.gz 162.29MB Kongsberg multibeam vendor format
0106_20160924_052134_HEALY.all.mb58.gz 291.14MB Kongsberg multibeam vendor format
0107_20160924_080004_HEALY.all.mb58.gz 222.44MB Kongsberg multibeam vendor format
0108_20160924_100003_HEALY.all.mb58.gz 239.96MB Kongsberg multibeam vendor format
0109_20160924_115958_HEALY.all.mb58.gz 240.34MB Kongsberg multibeam vendor format
0110_20160924_135959_HEALY.all.mb58.gz 233.65MB Kongsberg multibeam vendor format
0111_20160924_160007_HEALY.all.mb58.gz 232.72MB Kongsberg multibeam vendor format
0112_20160924_180009_HEALY.all.mb58.gz 221.92MB Kongsberg multibeam vendor format
0113_20160924_200012_HEALY.all.mb58.gz 236.23MB Kongsberg multibeam vendor format
0114_20160924_220037_HEALY.all.mb58.gz 234.21MB Kongsberg multibeam vendor format
0115_20160925_000006_HEALY.all.mb58.gz 231.72MB Kongsberg multibeam vendor format
0116_20160925_020000_HEALY.all.mb58.gz 234.81MB Kongsberg multibeam vendor format
0117_20160925_040025_HEALY.all.mb58.gz 233.88MB Kongsberg multibeam vendor format
0118_20160925_060017_HEALY.all.mb58.gz 230.18MB Kongsberg multibeam vendor format
0119_20160925_080007_HEALY.all.mb58.gz 234.04MB Kongsberg multibeam vendor format
0120_20160925_100011_HEALY.all.mb58.gz 230.92MB Kongsberg multibeam vendor format
0121_20160925_120018_HEALY.all.mb58.gz 236.01MB Kongsberg multibeam vendor format
0122_20160925_140011_HEALY.all.mb58.gz 235.21MB Kongsberg multibeam vendor format
0123_20160925_160004_HEALY.all.mb58.gz 235.49MB Kongsberg multibeam vendor format
0124_20160925_180017_HEALY.all.mb58.gz 234.75MB Kongsberg multibeam vendor format
0125_20160925_200017_HEALY.all.mb58.gz 234.49MB Kongsberg multibeam vendor format
0126_20160925_220009_HEALY.all.mb58.gz 236.88MB Kongsberg multibeam vendor format
0127_20160926_000006_HEALY.all.mb58.gz 243.52MB Kongsberg multibeam vendor format
0128_20160926_015928_HEALY.all.mb58.gz 246.84MB Kongsberg multibeam vendor format
0129_20160926_035928_HEALY.all.mb58.gz 246.12MB Kongsberg multibeam vendor format
0130_20160926_055927_HEALY.all.mb58.gz 247.28MB Kongsberg multibeam vendor format
0131_20160926_075920_HEALY.all.mb58.gz 247.44MB Kongsberg multibeam vendor format
0132_20160926_095918_HEALY.all.mb58.gz 240.78MB Kongsberg multibeam vendor format
0133_20160926_115925_HEALY.all.mb58.gz 240.54MB Kongsberg multibeam vendor format
0134_20160926_135920_HEALY.all.mb58.gz 247.60MB Kongsberg multibeam vendor format
0135_20160926_155926_HEALY.all.mb58.gz 73.25MB Kongsberg multibeam vendor format
0135_20160926_163820_HEALY.all.mb58.gz 166.33MB Kongsberg multibeam vendor format
0136_20160926_175917_HEALY.all.mb58.gz 246.74MB Kongsberg multibeam vendor format
0137_20160926_195929_HEALY.all.mb58.gz 247.50MB Kongsberg multibeam vendor format
0138_20160926_215934_HEALY.all.mb58.gz 248.19MB Kongsberg multibeam vendor format
0139_20160926_235922_HEALY.all.mb58.gz 249.12MB Kongsberg multibeam vendor format
0140_20160927_015923_HEALY.all.mb58.gz 250.62MB Kongsberg multibeam vendor format
0141_20160927_035950_HEALY.all.mb58.gz 249.00MB Kongsberg multibeam vendor format
0142_20160927_055927_HEALY.all.mb58.gz 249.91MB Kongsberg multibeam vendor format
0143_20160927_075917_HEALY.all.mb58.gz 248.02MB Kongsberg multibeam vendor format
0144_20160927_095927_HEALY.all.mb58.gz 234.99MB Kongsberg multibeam vendor format
0145_20160927_115939_HEALY.all.mb58.gz 232.69MB Kongsberg multibeam vendor format
0146_20160927_135925_HEALY.all.mb58.gz 234.74MB Kongsberg multibeam vendor format
0147_20160927_155936_HEALY.all.mb58.gz 233.70MB Kongsberg multibeam vendor format
0148_20160927_175935_HEALY.all.mb58.gz 235.27MB Kongsberg multibeam vendor format
0149_20160927_195959_HEALY.all.mb58.gz 234.07MB Kongsberg multibeam vendor format
0150_20160927_215928_HEALY.all.mb58.gz 234.68MB Kongsberg multibeam vendor format
0151_20160927_235943_HEALY.all.mb58.gz 235.66MB Kongsberg multibeam vendor format
0155_20160928_022924_HEALY.all.mb58.gz 171.36MB Kongsberg multibeam vendor format
0156_20160928_035713_HEALY.all.mb58.gz 240.45MB Kongsberg multibeam vendor format
0157_20160928_060018_HEALY.all.mb58.gz 234.76MB Kongsberg multibeam vendor format
0158_20160928_080027_HEALY.all.mb58.gz 234.44MB Kongsberg multibeam vendor format
0159_20160928_100028_HEALY.all.mb58.gz 234.26MB Kongsberg multibeam vendor format
0160_20160928_120024_HEALY.all.mb58.gz 234.59MB Kongsberg multibeam vendor format
0161_20160928_140027_HEALY.all.mb58.gz 235.06MB Kongsberg multibeam vendor format
0162_20160928_160047_HEALY.all.mb58.gz 234.31MB Kongsberg multibeam vendor format
0163_20160928_180035_HEALY.all.mb58.gz 234.59MB Kongsberg multibeam vendor format
0164_20160928_200030_HEALY.all.mb58.gz 352.64MB Kongsberg multibeam vendor format
0165_20160928_230028_HEALY.all.mb58.gz 117.97MB Kongsberg multibeam vendor format
0166_20160929_000010_HEALY.all.mb58.gz 241.14MB Kongsberg multibeam vendor format
0167_20160929_015954_HEALY.all.mb58.gz 596.88MB Kongsberg multibeam vendor format
0168_20160929_040008_HEALY.all.mb58.gz 677.00MB Kongsberg multibeam vendor format
0169_20160929_055950_HEALY.all.mb58.gz 241.91MB Kongsberg multibeam vendor format
0170_20160929_075953_HEALY.all.mb58.gz 236.43MB Kongsberg multibeam vendor format
0171_20160929_095955_HEALY.all.mb58.gz 235.07MB Kongsberg multibeam vendor format
0172_20160929_115951_HEALY.all.mb58.gz 233.89MB Kongsberg multibeam vendor format
0173_20160929_135944_HEALY.all.mb58.gz 234.30MB Kongsberg multibeam vendor format
0174_20160929_155952_HEALY.all.mb58.gz 238.15MB Kongsberg multibeam vendor format
0175_20160929_180138_HEALY.all.mb58.gz 230.77MB Kongsberg multibeam vendor format
0176_20160929_195950_HEALY.all.mb58.gz 234.11MB Kongsberg multibeam vendor format
0177_20160929_215950_HEALY.all.mb58.gz 234.88MB Kongsberg multibeam vendor format
0178_20160930_000015_HEALY.all.mb58.gz 234.48MB Kongsberg multibeam vendor format
0179_20160930_015945_HEALY.all.mb58.gz 236.98MB Kongsberg multibeam vendor format
0180_20160930_035954_HEALY.all.mb58.gz 247.06MB Kongsberg multibeam vendor format
0181_20160930_055944_HEALY.all.mb58.gz 460.01MB Kongsberg multibeam vendor format
0182_20160930_075946_HEALY.all.mb58.gz 710.32MB Kongsberg multibeam vendor format
0183_20160930_095946_HEALY.all.mb58.gz 860.79MB Kongsberg multibeam vendor format
0184_20160930_115949_HEALY.all.mb58.gz 912.88MB Kongsberg multibeam vendor format
0185_20160930_135941_HEALY.all.mb58.gz 942.29MB Kongsberg multibeam vendor format
0186_20160930_155944_HEALY.all.mb58.gz 931.45MB Kongsberg multibeam vendor format
0187_20160930_175949_HEALY.all.mb58.gz 997.65MB Kongsberg multibeam vendor format
0188_20160930_195929_HEALY.all.mb58.gz 1124.99MB Kongsberg multibeam vendor format
0189_20160930_215822_HEALY.all.mb58.gz 1150.03MB Kongsberg multibeam vendor format
0190_20161001_000014_HEALY.all.mb58.gz 1035.46MB Kongsberg multibeam vendor format
0191_20161001_020018_HEALY.all.mb58.gz 1019.04MB Kongsberg multibeam vendor format
0192_20161001_040022_HEALY.all.mb58.gz 912.08MB Kongsberg multibeam vendor format
0193_20161001_060014_HEALY.all.mb58.gz 931.36MB Kongsberg multibeam vendor format
0194_20161001_080014_HEALY.all.mb58.gz 851.31MB Kongsberg multibeam vendor format
0195_20161001_100013_HEALY.all.mb58.gz 928.48MB Kongsberg multibeam vendor format
0196_20161001_120010_HEALY.all.mb58.gz 1170.21MB Kongsberg multibeam vendor format
0197_20161001_140013_HEALY.all.mb58.gz 1080.03MB Kongsberg multibeam vendor format
0198_20161001_160022_HEALY.all.mb58.gz 825.91MB Kongsberg multibeam vendor format
0199_20161001_180014_HEALY.all.mb58.gz 0.70MB Kongsberg multibeam vendor format
0200_20161001_180020_HEALY.all.mb58.gz 0.70MB Kongsberg multibeam vendor format
0201_20161001_180026_HEALY.all.mb58.gz 1.00MB Kongsberg multibeam vendor format
0202_20161001_180034_HEALY.all.mb58.gz 0.52MB Kongsberg multibeam vendor format
0203_20161001_180039_HEALY.all.mb58.gz 0.98MB Kongsberg multibeam vendor format
0204_20161001_180047_HEALY.all.mb58.gz 813.77MB Kongsberg multibeam vendor format
0205_20161001_200020_HEALY.all.mb58.gz 835.50MB Kongsberg multibeam vendor format
0206_20161001_220002_HEALY.all.mb58.gz 63.46MB Kongsberg multibeam vendor format
0207_20161001_221051_HEALY.all.mb58.gz 0.90MB Kongsberg multibeam vendor format
0208_20161001_221228_HEALY.all.mb58.gz 64.36MB Kongsberg multibeam vendor format
0209_20161001_222343_HEALY.all.mb58.gz 728.55MB Kongsberg multibeam vendor format
0210_20161002_000059_HEALY.all.mb58.gz 932.17MB Kongsberg multibeam vendor format
0211_20161002_020014_HEALY.all.mb58.gz 736.27MB Kongsberg multibeam vendor format
0212_20161002_040013_HEALY.all.mb58.gz 940.03MB Kongsberg multibeam vendor format
0213_20161002_060008_HEALY.all.mb58.gz 1056.60MB Kongsberg multibeam vendor format
0214_20161002_080009_HEALY.all.mb58.gz 1141.72MB Kongsberg multibeam vendor format
0215_20161002_100008_HEALY.all.mb58.gz 1000.34MB Kongsberg multibeam vendor format
0216_20161002_120000_HEALY.all.mb58.gz 1089.14MB Kongsberg multibeam vendor format
0217_20161002_140001_HEALY.all.mb58.gz 1066.44MB Kongsberg multibeam vendor format
0218_20161002_160016_HEALY.all.mb58.gz 1131.34MB Kongsberg multibeam vendor format
0219_20161002_180000_HEALY.all.mb58.gz 935.99MB Kongsberg multibeam vendor format
0220_20161002_195957_HEALY.all.mb58.gz 1224.11MB Kongsberg multibeam vendor format
0221_20161002_220026_HEALY.all.mb58.gz 1148.02MB Kongsberg multibeam vendor format
0222_20161003_000018_HEALY.all.mb58.gz 983.66MB Kongsberg multibeam vendor format
0223_20161003_020011_HEALY.all.mb58.gz 828.31MB Kongsberg multibeam vendor format
0224_20161003_040022_HEALY.all.mb58.gz 720.57MB Kongsberg multibeam vendor format
0225_20161003_060014_HEALY.all.mb58.gz 639.34MB Kongsberg multibeam vendor format
0226_20161003_080005_HEALY.all.mb58.gz 609.95MB Kongsberg multibeam vendor format
0227_20161003_100011_HEALY.all.mb58.gz 584.93MB Kongsberg multibeam vendor format
0228_20161003_120012_HEALY.all.mb58.gz 561.62MB Kongsberg multibeam vendor format
0229_20161003_140009_HEALY.all.mb58.gz 543.22MB Kongsberg multibeam vendor format
0230_20161003_160012_HEALY.all.mb58.gz 509.51MB Kongsberg multibeam vendor format
0231_20161003_180013_HEALY.all.mb58.gz 216.16MB Kongsberg multibeam vendor format
0232_20161003_185337_HEALY.all.mb58.gz 485.74MB Kongsberg multibeam vendor format
0233_20161003_215345_HEALY.all.mb58.gz 12.55MB Kongsberg multibeam vendor format
0234_20161003_220006_HEALY.all.mb58.gz 234.84MB Kongsberg multibeam vendor format
0235_20161004_000010_HEALY.all.mb58.gz 234.03MB Kongsberg multibeam vendor format
0236_20161004_015952_HEALY.all.mb58.gz 151.48MB Kongsberg multibeam vendor format
0238_20161004_031909_HEALY.all.mb58.gz 75.80MB Kongsberg multibeam vendor format
0239_20161004_040009_HEALY.all.mb58.gz 230.63MB Kongsberg multibeam vendor format
0240_20161004_060006_HEALY.all.mb58.gz 232.11MB Kongsberg multibeam vendor format
0241_20161004_075951_HEALY.all.mb58.gz 307.79MB Kongsberg multibeam vendor format
0242_20161004_101518_HEALY.all.mb58.gz 56.66MB Kongsberg multibeam vendor format
0243_20161004_104246_HEALY.all.mb58.gz 188.18MB Kongsberg multibeam vendor format
0244_20161004_120000_HEALY.all.mb58.gz 80.45MB Kongsberg multibeam vendor format
0245_20161004_123823_HEALY.all.mb58.gz 150.66MB Kongsberg multibeam vendor format
0246_20161004_135951_HEALY.all.mb58.gz 216.63MB Kongsberg multibeam vendor format
0247_20161004_155726_HEALY.all.mb58.gz 228.51MB Kongsberg multibeam vendor format
0248_20161004_175949_HEALY.all.mb58.gz 227.23MB Kongsberg multibeam vendor format
0249_20161004_200003_HEALY.all.mb58.gz 230.19MB Kongsberg multibeam vendor format
0250_20161004_220004_HEALY.all.mb58.gz 130.18MB Kongsberg multibeam vendor format
0251_20161004_235652_HEALY.all.mb58.gz 9.94MB Kongsberg multibeam vendor format
0252_20161005_001519_HEALY.all.mb58.gz 207.85MB Kongsberg multibeam vendor format
0253_20161005_020001_HEALY.all.mb58.gz 240.22MB Kongsberg multibeam vendor format
0254_20161005_035923_HEALY.all.mb58.gz 274.59MB Kongsberg multibeam vendor format
0255_20161005_055925_HEALY.all.mb58.gz 282.15MB Kongsberg multibeam vendor format
0256_20161005_075936_HEALY.all.mb58.gz 277.81MB Kongsberg multibeam vendor format
0257_20161005_095919_HEALY.all.mb58.gz 274.15MB Kongsberg multibeam vendor format
0258_20161005_115920_HEALY.all.mb58.gz 255.88MB Kongsberg multibeam vendor format
0259_20161005_140149_HEALY.all.mb58.gz 270.36MB Kongsberg multibeam vendor format
0260_20161005_155926_HEALY.all.mb58.gz 304.88MB Kongsberg multibeam vendor format
Arctic_HE1603_JD263-374_Backscatter.xyb.gz 67.53MB Generic XYB backscatter format

Full Resolution Bathymetry (processed): 272

Files File Size Description
0000_20050101_092150_HEALY-EM122248.xyz 108.50MB Generic XYZ sounding format
0001_20050101_095150_HEALY-EM122247.xyz 23.61MB Generic XYZ sounding format
0002_20050101_102100_HEALY-EM122246.xyz 107.15MB Generic XYZ sounding format
0003_20050101_105100_HEALY-EM122245.xyz 113.07MB Generic XYZ sounding format
0004_20050101_112100_HEALY-EM122244.xyz 110.69MB Generic XYZ sounding format
0005_20050101_115100_HEALY-EM122243.xyz 107.20MB Generic XYZ sounding format
0006_20050101_122100_HEALY-EM122242.xyz 105.96MB Generic XYZ sounding format
0007_20050101_125100_HEALY-EM122241.xyz 103.47MB Generic XYZ sounding format
0008_20050101_132100_HEALY-EM122240.xyz 101.53MB Generic XYZ sounding format
0009_20050101_135100_HEALY-EM122239.xyz 101.35MB Generic XYZ sounding format
0010_20050101_142100_HEALY-EM122238.xyz 101.40MB Generic XYZ sounding format
0011_20050101_145100_HEALY-EM122237.xyz 94.47MB Generic XYZ sounding format
0012_20050101_152100_HEALY-EM122236.xyz 99.90MB Generic XYZ sounding format
0013_20050101_155100_HEALY-EM122235.xyz 110.33MB Generic XYZ sounding format
0014_20050101_162100_HEALY-EM122234.xyz 107.20MB Generic XYZ sounding format
0015_20050101_165100_HEALY-EM122233.xyz 100.14MB Generic XYZ sounding format
0016_20050101_172100_HEALY-EM122232.xyz 101.47MB Generic XYZ sounding format
0017_20050101_175100_HEALY-EM122231.xyz 103.63MB Generic XYZ sounding format
0018_20050101_182100_HEALY-EM122230.xyz 106.02MB Generic XYZ sounding format
0019_20050101_185100_HEALY-EM122229.xyz 111.69MB Generic XYZ sounding format
0020_20050101_192100_HEALY-EM122228.xyz 115.45MB Generic XYZ sounding format
0021_20050101_195100_HEALY-EM122227.xyz 111.97MB Generic XYZ sounding format
0022_20050101_202100_HEALY-EM122226.xyz 119.79MB Generic XYZ sounding format
0023_20050101_205100_HEALY-EM122225.xyz 55.55MB Generic XYZ sounding format
0024_20050101_212100_HEALY-EM122224.xyz 121.61MB Generic XYZ sounding format
0025_20050101_215100_HEALY-EM122223.xyz 50.61MB Generic XYZ sounding format
0027_20041231_222831_HEALY-EM122222.xyz 105.99MB Generic XYZ sounding format
0028_20041231_225831_HEALY-EM122221.xyz 100.26MB Generic XYZ sounding format
0029_20041231_232831_HEALY-EM122220.xyz 92.32MB Generic XYZ sounding format
0030_20041231_235831_HEALY-EM122219.xyz 91.76MB Generic XYZ sounding format
0031_20050101_002831_HEALY-EM122218.xyz 84.29MB Generic XYZ sounding format
0032_20050101_005831_HEALY-EM122217.xyz 67.81MB Generic XYZ sounding format
0033_20050101_012831_HEALY-EM122216.xyz 41.07MB Generic XYZ sounding format
0034_20050101_015832_HEALY-EM122215.xyz 18.33MB Generic XYZ sounding format
0035_20050101_022832_HEALY-EM122214.xyz 9.58MB Generic XYZ sounding format
0036_20050101_025834_HEALY-EM122213.xyz 4.98MB Generic XYZ sounding format
0037_20050101_032833_HEALY-EM122212.xyz 4.68MB Generic XYZ sounding format
0038_20050101_035838_HEALY-EM122211.xyz 5.25MB Generic XYZ sounding format
0039_20050101_042839_HEALY-EM122210.xyz 4.80MB Generic XYZ sounding format
0040_20050101_045836_HEALY-EM122209.xyz 4.73MB Generic XYZ sounding format
0041_20050101_052836_HEALY-EM122208.xyz 4.49MB Generic XYZ sounding format
0042_20050101_055838_HEALY-EM122207.xyz 4.27MB Generic XYZ sounding format
0043_20050101_062835_HEALY-EM122206.xyz 4.45MB Generic XYZ sounding format
0044_20050101_065841_HEALY-EM122205.xyz 4.23MB Generic XYZ sounding format
0045_20050101_072838_HEALY-EM122204.xyz 3.64MB Generic XYZ sounding format
0046_20050101_075836_HEALY-EM122203.xyz 3.20MB Generic XYZ sounding format
0047_20050101_082837_HEALY-EM122202.xyz 3.63MB Generic XYZ sounding format
0048_20050101_085831_HEALY-EM122201.xyz 5.00MB Generic XYZ sounding format
0049_20050101_092833_HEALY-EM122200.xyz 4.40MB Generic XYZ sounding format
0050_20050101_095831_HEALY-EM122199.xyz 3.26MB Generic XYZ sounding format
0051_20050101_102839_HEALY-EM122198.xyz 3.8KB Generic XYZ sounding format
0052_20160920_125100_HEALY-EM122197.xyz 4.02MB Generic XYZ sounding format
0053_20160920_132059_HEALY-EM122196.xyz 0.94MB Generic XYZ sounding format
0054_20160920_134931_HEALY-EM122195.xyz 1.26MB Generic XYZ sounding format
0055_20160920_141937_HEALY-EM122194.xyz 1.86MB Generic XYZ sounding format
0056_20160920_144935_HEALY-EM122193.xyz 339.9KB Generic XYZ sounding format
0057_20160920_152119_HEALY-EM122192.xyz 1.95MB Generic XYZ sounding format
0058_20160920_155121_HEALY-EM122191.xyz 2.00MB Generic XYZ sounding format
0059_20160920_162115_HEALY-EM122190.xyz 478.0KB Generic XYZ sounding format
0060_20160920_181543_HEALY-EM122189.xyz 5.23MB Generic XYZ sounding format
0062_20160920_202614_HEALY-EM122188.xyz 5.17MB Generic XYZ sounding format
0063_20160920_214350_HEALY-EM122187.xyz 1.11MB Generic XYZ sounding format
0064_20160920_225525_HEALY-EM122186.xyz 20.35MB Generic XYZ sounding format
0065_20160921_015522_HEALY-EM122185.xyz 24.03MB Generic XYZ sounding format
0066_20160921_042900_HEALY-EM122184.xyz 14.22MB Generic XYZ sounding format
0067_20160921_060019_HEALY-EM122183.xyz 19.29MB Generic XYZ sounding format
0068_20160921_080003_HEALY-EM122182.xyz 15.96MB Generic XYZ sounding format
0069_20160921_100008_HEALY-EM122181.xyz 19.17MB Generic XYZ sounding format
0070_20160921_120009_HEALY-EM122180.xyz 19.45MB Generic XYZ sounding format
0071_20160921_140012_HEALY-EM122179.xyz 19.37MB Generic XYZ sounding format
0072_20160921_160002_HEALY-EM122178.xyz 27.70MB Generic XYZ sounding format
0073_20160921_190006_HEALY-EM122177.xyz 3.68MB Generic XYZ sounding format
0074_20160921_192658_HEALY-EM122176.xyz 4.75MB Generic XYZ sounding format
0075_20160921_195608_HEALY-EM122175.xyz 19.83MB Generic XYZ sounding format
0076_20160921_220012_HEALY-EM122174.xyz 14.65MB Generic XYZ sounding format
0077_20160921_235941_HEALY-EM122173.xyz 2.28MB Generic XYZ sounding format
0078_20160922_003013_HEALY-EM122172.xyz 5.81MB Generic XYZ sounding format
0079_20160922_020036_HEALY-EM122171.xyz 7.73MB Generic XYZ sounding format
0080_20160922_040051_HEALY-EM122170.xyz 7.81MB Generic XYZ sounding format
0081_20160922_060003_HEALY-EM122169.xyz 7.45MB Generic XYZ sounding format
0082_20160922_080003_HEALY-EM122168.xyz 7.58MB Generic XYZ sounding format
0083_20160922_100007_HEALY-EM122167.xyz 7.84MB Generic XYZ sounding format
0084_20160922_120021_HEALY-EM122166.xyz 7.92MB Generic XYZ sounding format
0085_20160922_140012_HEALY-EM122165.xyz 7.63MB Generic XYZ sounding format
0086_20160922_160013_HEALY-EM122164.xyz 8.09MB Generic XYZ sounding format
0087_20160922_180002_HEALY-EM122163.xyz 5.20MB Generic XYZ sounding format
0088_20160922_200004_HEALY-EM122162.xyz 5.99MB Generic XYZ sounding format
0089_20160922_220125_HEALY-EM122161.xyz 3.87MB Generic XYZ sounding format
0090_20160923_000013_HEALY-EM122160.xyz 7.38MB Generic XYZ sounding format
0091_20160923_020004_HEALY-EM122159.xyz 4.22MB Generic XYZ sounding format
0092_20160923_040017_HEALY-EM122158.xyz 6.76MB Generic XYZ sounding format
0093_20160923_060011_HEALY-EM122157.xyz 3.79MB Generic XYZ sounding format
0094_20160923_080008_HEALY-EM122156.xyz 6.17MB Generic XYZ sounding format
0095_20160923_100000_HEALY-EM122155.xyz 6.22MB Generic XYZ sounding format
0096_20160923_120004_HEALY-EM122154.xyz 8.75MB Generic XYZ sounding format
0097_20160923_140011_HEALY-EM122153.xyz 2.51MB Generic XYZ sounding format
0098_20160923_160021_HEALY-EM122152.xyz 7.78MB Generic XYZ sounding format
0099_20160923_180007_HEALY-EM122151.xyz 2.17MB Generic XYZ sounding format
0100_20160923_192722_HEALY-EM122150.xyz 2.9KB Generic XYZ sounding format
0102_20160923_220044_HEALY-EM122149.xyz 9.99MB Generic XYZ sounding format
0103_20160924_000044_HEALY-EM122148.xyz 8.81MB Generic XYZ sounding format
0104_20160924_020002_HEALY-EM122147.xyz 11.16MB Generic XYZ sounding format
0105_20160924_040004_HEALY-EM122146.xyz 7.70MB Generic XYZ sounding format
0106_20160924_052134_HEALY-EM122145.xyz 1.72MB Generic XYZ sounding format
0107_20160924_080004_HEALY-EM122144.xyz 2.33MB Generic XYZ sounding format
0108_20160924_100003_HEALY-EM122143.xyz 11.68MB Generic XYZ sounding format
0109_20160924_115958_HEALY-EM122142.xyz 11.91MB Generic XYZ sounding format
0110_20160924_135959_HEALY-EM122141.xyz 7.84MB Generic XYZ sounding format
0111_20160924_160007_HEALY-EM122140.xyz 7.23MB Generic XYZ sounding format
0112_20160924_180009_HEALY-EM122139.xyz 1.44MB Generic XYZ sounding format
0113_20160924_200012_HEALY-EM122138.xyz 9.12MB Generic XYZ sounding format
0114_20160924_220037_HEALY-EM122137.xyz 7.53MB Generic XYZ sounding format
0115_20160925_000006_HEALY-EM122136.xyz 6.07MB Generic XYZ sounding format
0116_20160925_020000_HEALY-EM122135.xyz 7.39MB Generic XYZ sounding format
0117_20160925_040025_HEALY-EM122134.xyz 7.88MB Generic XYZ sounding format
0118_20160925_060017_HEALY-EM122133.xyz 5.27MB Generic XYZ sounding format
0119_20160925_080007_HEALY-EM122132.xyz 6.93MB Generic XYZ sounding format
0120_20160925_100011_HEALY-EM122131.xyz 5.37MB Generic XYZ sounding format
0121_20160925_120018_HEALY-EM122130.xyz 8.57MB Generic XYZ sounding format
0122_20160925_140011_HEALY-EM122129.xyz 8.29MB Generic XYZ sounding format
0123_20160925_160004_HEALY-EM122128.xyz 7.95MB Generic XYZ sounding format
0124_20160925_180017_HEALY-EM122127.xyz 7.30MB Generic XYZ sounding format
0125_20160925_200017_HEALY-EM122126.xyz 7.65MB Generic XYZ sounding format
0126_20160925_220009_HEALY-EM122125.xyz 9.67MB Generic XYZ sounding format
0127_20160926_000006_HEALY-EM122124.xyz 15.34MB Generic XYZ sounding format
0128_20160926_015928_HEALY-EM122123.xyz 17.45MB Generic XYZ sounding format
0129_20160926_035928_HEALY-EM122122.xyz 17.27MB Generic XYZ sounding format
0130_20160926_055927_HEALY-EM122121.xyz 18.01MB Generic XYZ sounding format
0131_20160926_075920_HEALY-EM122120.xyz 17.77MB Generic XYZ sounding format
0132_20160926_095918_HEALY-EM122119.xyz 12.19MB Generic XYZ sounding format
0133_20160926_115925_HEALY-EM122118.xyz 12.59MB Generic XYZ sounding format
0134_20160926_135920_HEALY-EM122117.xyz 17.71MB Generic XYZ sounding format
0135_20160926_155926_HEALY-EM122116.xyz 5.04MB Generic XYZ sounding format
0135_20160926_163820_HEALY-EM122115.xyz 10.82MB Generic XYZ sounding format
0136_20160926_175917_HEALY-EM122114.xyz 16.70MB Generic XYZ sounding format
0137_20160926_195929_HEALY-EM122113.xyz 16.99MB Generic XYZ sounding format
0138_20160926_215934_HEALY-EM122112.xyz 18.13MB Generic XYZ sounding format
0139_20160926_235922_HEALY-EM122111.xyz 17.62MB Generic XYZ sounding format
0140_20160927_015923_HEALY-EM122110.xyz 18.04MB Generic XYZ sounding format
0141_20160927_035950_HEALY-EM122109.xyz 17.83MB Generic XYZ sounding format
0142_20160927_055927_HEALY-EM122108.xyz 18.25MB Generic XYZ sounding format
0143_20160927_075917_HEALY-EM122107.xyz 16.87MB Generic XYZ sounding format
0144_20160927_095927_HEALY-EM122106.xyz 8.41MB Generic XYZ sounding format
0145_20160927_115939_HEALY-EM122105.xyz 7.43MB Generic XYZ sounding format
0146_20160927_135925_HEALY-EM122104.xyz 7.75MB Generic XYZ sounding format
0147_20160927_155936_HEALY-EM122103.xyz 7.25MB Generic XYZ sounding format
0148_20160927_175935_HEALY-EM122102.xyz 7.75MB Generic XYZ sounding format
0149_20160927_195959_HEALY-EM122101.xyz 8.17MB Generic XYZ sounding format
0150_20160927_215928_HEALY-EM122100.xyz 7.84MB Generic XYZ sounding format
0151_20160927_235943_HEALY-EM12299.xyz 8.24MB Generic XYZ sounding format
0155_20160928_022924_HEALY-EM12298.xyz 6.07MB Generic XYZ sounding format
0156_20160928_035713_HEALY-EM12297.xyz 8.66MB Generic XYZ sounding format
0157_20160928_060018_HEALY-EM12296.xyz 8.28MB Generic XYZ sounding format
0158_20160928_080027_HEALY-EM12295.xyz 7.80MB Generic XYZ sounding format
0159_20160928_100028_HEALY-EM12294.xyz 7.83MB Generic XYZ sounding format
0160_20160928_120024_HEALY-EM12293.xyz 7.82MB Generic XYZ sounding format
0161_20160928_140027_HEALY-EM12292.xyz 8.10MB Generic XYZ sounding format
0162_20160928_160047_HEALY-EM12291.xyz 8.08MB Generic XYZ sounding format
0163_20160928_180035_HEALY-EM12290.xyz 8.24MB Generic XYZ sounding format
0164_20160928_200030_HEALY-EM12289.xyz 12.52MB Generic XYZ sounding format
0165_20160928_230028_HEALY-EM12288.xyz 4.41MB Generic XYZ sounding format
0166_20160929_000010_HEALY-EM12287.xyz 11.12MB Generic XYZ sounding format
0167_20160929_015954_HEALY-EM12286.xyz 199.92MB Generic XYZ sounding format
0168_20160929_040008_HEALY-EM12285.xyz 252.32MB Generic XYZ sounding format
0169_20160929_055950_HEALY-EM12284.xyz 10.08MB Generic XYZ sounding format
0170_20160929_075953_HEALY-EM12283.xyz 8.39MB Generic XYZ sounding format
0171_20160929_095955_HEALY-EM12282.xyz 7.51MB Generic XYZ sounding format
0172_20160929_115951_HEALY-EM12281.xyz 7.50MB Generic XYZ sounding format
0173_20160929_135944_HEALY-EM12280.xyz 7.37MB Generic XYZ sounding format
0174_20160929_155952_HEALY-EM12279.xyz 8.19MB Generic XYZ sounding format
0175_20160929_180138_HEALY-EM12278.xyz 7.68MB Generic XYZ sounding format
0176_20160929_195950_HEALY-EM12277.xyz 7.69MB Generic XYZ sounding format
0177_20160929_215950_HEALY-EM12276.xyz 7.93MB Generic XYZ sounding format
0178_20160930_000015_HEALY-EM12275.xyz 8.31MB Generic XYZ sounding format
0179_20160930_015945_HEALY-EM12274.xyz 8.65MB Generic XYZ sounding format
0180_20160930_035954_HEALY-EM12273.xyz 16.79MB Generic XYZ sounding format
0181_20160930_055944_HEALY-EM12272.xyz 138.69MB Generic XYZ sounding format
0182_20160930_075946_HEALY-EM12271.xyz 270.31MB Generic XYZ sounding format
0183_20160930_095946_HEALY-EM12270.xyz 352.02MB Generic XYZ sounding format
0184_20160930_115949_HEALY-EM12269.xyz 363.66MB Generic XYZ sounding format
0185_20160930_135941_HEALY-EM12268.xyz 402.00MB Generic XYZ sounding format
0186_20160930_155944_HEALY-EM12267.xyz 395.19MB Generic XYZ sounding format
0187_20160930_175949_HEALY-EM12266.xyz 424.81MB Generic XYZ sounding format
0188_20160930_195929_HEALY-EM12265.xyz 492.26MB Generic XYZ sounding format
0189_20160930_215822_HEALY-EM12264.xyz 518.89MB Generic XYZ sounding format
0190_20161001_000014_HEALY-EM12263.xyz 462.15MB Generic XYZ sounding format
0191_20161001_020018_HEALY-EM12262.xyz 452.89MB Generic XYZ sounding format
0192_20161001_040022_HEALY-EM12261.xyz 374.90MB Generic XYZ sounding format
0193_20161001_060014_HEALY-EM12260.xyz 392.86MB Generic XYZ sounding format
0194_20161001_080014_HEALY-EM12259.xyz 350.27MB Generic XYZ sounding format
0195_20161001_100013_HEALY-EM12258.xyz 385.28MB Generic XYZ sounding format
0196_20161001_120010_HEALY-EM12257.xyz 472.93MB Generic XYZ sounding format
0197_20161001_140013_HEALY-EM12256.xyz 475.41MB Generic XYZ sounding format
0198_20161001_160022_HEALY-EM12255.xyz 337.28MB Generic XYZ sounding format
0204_20161001_180047_HEALY-EM12254.xyz 336.16MB Generic XYZ sounding format
0205_20161001_200020_HEALY-EM12253.xyz 353.92MB Generic XYZ sounding format
0206_20161001_220002_HEALY-EM12252.xyz 22.94MB Generic XYZ sounding format
0208_20161001_221228_HEALY-EM12251.xyz 24.95MB Generic XYZ sounding format
0209_20161001_222343_HEALY-EM12250.xyz 295.19MB Generic XYZ sounding format
0210_20161002_000059_HEALY-EM12249.xyz 358.71MB Generic XYZ sounding format
0211_20161002_020014_HEALY-EM12248.xyz 247.69MB Generic XYZ sounding format
0212_20161002_040013_HEALY-EM12247.xyz 347.58MB Generic XYZ sounding format
0213_20161002_060008_HEALY-EM12246.xyz 385.59MB Generic XYZ sounding format
0214_20161002_080009_HEALY-EM12245.xyz 471.97MB Generic XYZ sounding format
0215_20161002_100008_HEALY-EM12244.xyz 399.86MB Generic XYZ sounding format
0216_20161002_120000_HEALY-EM12243.xyz 436.34MB Generic XYZ sounding format
0217_20161002_140001_HEALY-EM12242.xyz 337.49MB Generic XYZ sounding format
0218_20161002_160016_HEALY-EM12241.xyz 292.23MB Generic XYZ sounding format
0219_20161002_180000_HEALY-EM12240.xyz 321.00MB Generic XYZ sounding format
0220_20161002_195957_HEALY-EM12239.xyz 514.97MB Generic XYZ sounding format
0221_20161002_220026_HEALY-EM12238.xyz 491.31MB Generic XYZ sounding format
0222_20161003_000018_HEALY-EM12237.xyz 400.91MB Generic XYZ sounding format
0223_20161003_020011_HEALY-EM12236.xyz 327.08MB Generic XYZ sounding format
0224_20161003_040022_HEALY-EM12235.xyz 277.28MB Generic XYZ sounding format
0225_20161003_060014_HEALY-EM12234.xyz 218.90MB Generic XYZ sounding format
0226_20161003_080005_HEALY-EM12233.xyz 215.10MB Generic XYZ sounding format
0227_20161003_100011_HEALY-EM12232.xyz 202.88MB Generic XYZ sounding format
0228_20161003_120012_HEALY-EM12231.xyz 196.25MB Generic XYZ sounding format
0229_20161003_140009_HEALY-EM12230.xyz 188.97MB Generic XYZ sounding format
0230_20161003_160012_HEALY-EM12229.xyz 168.55MB Generic XYZ sounding format
0231_20161003_180013_HEALY-EM12228.xyz 63.46MB Generic XYZ sounding format
0232_20161003_185337_HEALY-EM12227.xyz 82.82MB Generic XYZ sounding format
0233_20161003_215345_HEALY-EM12226.xyz 468.5KB Generic XYZ sounding format
0234_20161003_220006_HEALY-EM12225.xyz 7.93MB Generic XYZ sounding format
0235_20161004_000010_HEALY-EM12224.xyz 7.97MB Generic XYZ sounding format
0236_20161004_015952_HEALY-EM12223.xyz 3.23MB Generic XYZ sounding format
0238_20161004_031909_HEALY-EM12222.xyz 0.95MB Generic XYZ sounding format
0239_20161004_040009_HEALY-EM12221.xyz 5.09MB Generic XYZ sounding format
0240_20161004_060006_HEALY-EM12220.xyz 6.27MB Generic XYZ sounding format
0241_20161004_075951_HEALY-EM12219.xyz 32.86MB Generic XYZ sounding format
0242_20161004_101518_HEALY-EM12218.xyz 4.38MB Generic XYZ sounding format
0243_20161004_104246_HEALY-EM12217.xyz 22.84MB Generic XYZ sounding format
0244_20161004_120000_HEALY-EM12216.xyz 4.71MB Generic XYZ sounding format
0245_20161004_123823_HEALY-EM12215.xyz 1.04MB Generic XYZ sounding format
0246_20161004_135951_HEALY-EM12214.xyz 1.60MB Generic XYZ sounding format
0247_20161004_155726_HEALY-EM12213.xyz 4.44MB Generic XYZ sounding format
0248_20161004_175949_HEALY-EM12212.xyz 4.01MB Generic XYZ sounding format
0249_20161004_200003_HEALY-EM12211.xyz 5.63MB Generic XYZ sounding format
0250_20161004_220004_HEALY-EM12210.xyz 4.03MB Generic XYZ sounding format
0251_20161004_235652_HEALY-EM1229.xyz 336.2KB Generic XYZ sounding format
0252_20161005_001519_HEALY-EM1228.xyz 8.98MB Generic XYZ sounding format
0253_20161005_020001_HEALY-EM1227.xyz 11.63MB Generic XYZ sounding format
0254_20161005_035923_HEALY-EM1226.xyz 23.88MB Generic XYZ sounding format
0255_20161005_055925_HEALY-EM1225.xyz 26.80MB Generic XYZ sounding format
0256_20161005_075936_HEALY-EM1224.xyz 24.46MB Generic XYZ sounding format
0257_20161005_095919_HEALY-EM1223.xyz 20.90MB Generic XYZ sounding format
0258_20161005_115920_HEALY-EM1222.xyz 20.09MB Generic XYZ sounding format
0259_20161005_140149_HEALY-EM1221.xyz 23.16MB Generic XYZ sounding format
0260_20161005_155926_HEALY-EM1220.xyz 40.88MB Generic XYZ sounding format
Arctic_HE1603_160919_backscatter.xyb 7.42MB Generic XYB backscatter format
Arctic_HE1603_160920_backscatter.xyb 17.01MB Generic XYB backscatter format
Arctic_HE1603_160921_backscatter.xyb 9.73MB Generic XYB backscatter format
Arctic_HE1603_160922_backscatter.xyb 10.94MB Generic XYB backscatter format
Arctic_HE1603_160923_backscatter.xyb 9.85MB Generic XYB backscatter format
Arctic_HE1603_160924_backscatter.xyb 7.81MB Generic XYB backscatter format
Arctic_HE1603_160925_backscatter.xyb 9.65MB Generic XYB backscatter format
Arctic_HE1603_160926_backscatter.xyb 14.43MB Generic XYB backscatter format
Arctic_HE1603_160927_backscatter.xyb 26.02MB Generic XYB backscatter format
Arctic_HE1603_160928_backscatter.xyb 57.93MB Generic XYB backscatter format
Arctic_HE1603_160929_backscatter.xyb 19.93MB Generic XYB backscatter format
BeringSea_HE1603_160919_backscatter.xyb 7.42MB Generic XYB backscatter format
BeringSea_HE1603_160920_backscatter.xyb 17.01MB Generic XYB backscatter format
BeringSea_HE1603_160921_backscatter.xyb 9.73MB Generic XYB backscatter format
BeringSea_HE1603_160922_backscatter.xyb 10.94MB Generic XYB backscatter format
BeringSea_HE1603_160923_backscatter.xyb 9.85MB Generic XYB backscatter format
BeringSea_HE1603_160924_backscatter.xyb 7.81MB Generic XYB backscatter format
BeringSea_HE1603_160925_backscatter.xyb 9.65MB Generic XYB backscatter format
BeringSea_HE1603_160926_backscatter.xyb 14.43MB Generic XYB backscatter format
BeringSea_HE1603_160927_backscatter.xyb 26.02MB Generic XYB backscatter format
BeringSea_HE1603_160928_backscatter.xyb 57.93MB Generic XYB backscatter format
BeringSea_HE1603_160929_backscatter.xyb 19.93MB Generic XYB backscatter format
BeringSea_HE1603_160930_backscatter.xyb 2.79MB Generic XYB backscatter format

Products: 8

Files File Size Description
Arctic_HE1603_JD263-374_Backscatter.asc.gz 929.28MB ESRI Arc ASCII
Arctic_HE1603_JD263-374_Backscatter.sd.gz 23.55MB Fledermaus surface
Arctic_HE1603_JD263-374_Bathy.asc.gz 933.26MB ESRI Arc ASCII
Arctic_HE1603_JD263-374_Bathy.sd.gz 400.38MB Fledermaus surface
Arctic_HE1603_JD263-374_Bathy.xyz.gz 76.55MB xyz grid file provided by the originator
BeringSea_HE1603_BeringianMargin_bathy.asc.gz 19.59MB ESRI Arc ASCII
BeringSea_HE1603_BeringianMargin_bathy.sd.gz 9.49MB Fledermaus surface
BeringSea_HE1603_BeringianMargin_bathy.xyz.gz 6.39MB xyz grid file provided by the originator

Metadata Files: 3

Files File Size Description
Arctic_HE1603_Backscatter_ESRI_GRID_metadata.xml 15.9KB XML metadata file
Arctic_HE1603_Bathymetry_ESRI_GRID_metadata.xml 16.0KB XML metadata file
v1_file_metadata.tar.gz 68.2KB File level metadata

Ancillary Files: 1

Files File Size Description
xbt.tar.gz 0.87MB Expendable Bathythermograph (XBT) data